FW1818 Weather Reports


Display with metric or nautical units.
time (UTC)temp
F
wind
direction
speed
MPH
gust
MPH
rain 1hr
in
rain 24hr
in
rain mn
in
humidity
%
barometer
mb
20171211130519 40 142 0.0 0.0 0.00 0.00 0.00 74 1023.8
20171211125009 39 142 0.0 0.0 0.00 0.00 0.00 78 1023.6
20171211123519 39 142 0.0 0.0 0.00 0.00 0.00 77 1023.6
20171211121510 39 142 0.0 0.0 0.00 0.00 0.00 75 1023.7
20171211115521 41 142 0.0 0.0 0.00 0.00 0.00 72 1023.6
20171211113958 41 142 0.0 0.0 0.00 0.00 0.00 73 1023.7
20171211112448 39 142 0.0 0.0 0.00 0.00 0.00 80 1023.9
20171211110535 38 142 0.0 0.0 0.00 0.00 0.00 84 1023.8
20171211105006 38 142 0.0 0.0 0.00 0.00 0.00 85 1023.8
20171211103019 38 142 0.0 0.0 0.00 0.00 0.00 83 1023.8
20171211101458 39 142 0.0 0.0 0.00 0.00 0.00 84 1023.8
20171211095947 39 142 0.0 0.0 0.00 0.00 0.00 86 1023.7
20171211093944 48 54 5.0 9.0 0.00 0.00 0.00 63 1023.6
20171211092430 48 46 4.0 6.0 0.00 0.00 0.00 61 1023.5
20171211090519 49 46 5.0 8.0 0.00 0.00 0.00 60 1023.3
20171211084956 50 49 5.0 7.0 0.00 0.00 0.00 58 1023.3
20171211082945 51 55 5.0 6.0 0.00 0.00 0.00 58 1023.2
20171211081507 51 63 5.0 6.0 0.00 0.00 0.00 59 1023.2
20171211075449 51 69 6.0 7.0 0.00 0.00 0.00 58 1023.1
20171211073447 52 74 5.0 6.0 0.00 0.00 0.00 61 1023.1
20171211071457 41 142 0.0 0.0 0.00 0.00 0.00 86 1023.1
20171211065927 42 142 0.0 0.0 0.00 0.00 0.00 85 1022.9
20171211063946 42 142 0.0 0.0 0.00 0.00 0.00 85 1022.9
20171211062426 42 142 0.0 0.0 0.00 0.00 0.00 85 1022.8
20171211060453 43 142 0.0 0.0 0.00 0.00 0.00 84 1022.4
20171211054949 43 142 0.0 0.0 0.00 0.00 0.00 84 1022.5
20171211052958 43 142 0.0 0.0 0.00 0.00 0.00 83 1022.4
20171211050952 44 142 0.0 0.0 0.00 0.00 0.00 82 1022.2
20171211045432 44 142 0.0 0.0 0.00 0.00 0.00 81 1022.1
20171211043937 45 142 0.0 0.0 0.00 0.00 0.00 81 1022.1
20171211041951 45 142 0.0 0.0 0.00 0.00 0.00 80 1021.8
20171211040025 45 142 0.0 0.0 0.00 0.00 0.00 80 1021.7
20171211034427 46 142 0.0 0.0 0.00 0.00 0.00 79 1021.6
20171211032941 47 142 0.0 0.0 0.00 0.00 0.00 78 1021.7
20171211030946 48 142 0.0 0.0 0.00 0.00 0.00 74 1021.5
20171211025436 49 142 0.0 0.0 0.00 0.00 0.00 72 1021.4
20171211023530 51 142 0.0 0.0 0.00 0.00 0.00 70 1021.4
20171211021442 52 142 0.0 0.0 0.00 0.00 0.00 67 1021.2
20171211015458 54 142 0.0 2.0 0.00 0.00 0.00 65 1021.3
20171211013945 54 142 0.0 3.0 0.00 0.00 0.00 63 1021.2
20171211012441 55 142 1.0 4.0 0.00 0.00 0.00 62 1021.1
20171211010934 56 142 2.0 4.0 0.00 0.00 0.00 61 1021.1
20171211005423 57 139 1.0 5.0 0.00 0.00 0.00 60 1021.1
20171211003857 59 135 1.0 5.0 0.00 0.00 0.00 58 1021.2
20171211002401 61 136 1.0 5.0 0.00 0.00 0.00 53 1021.3
20171211000414 63 140 1.0 7.0 0.00 0.00 0.00 49 1021.5
20171210234417 63 138 2.0 5.0 0.00 0.00 0.00 46 1021.6
20171210232903 63 146 1.0 6.0 0.00 0.00 0.00 46 1021.6
20171210230935 64 110 1.0 8.0 0.00 0.00 0.00 45 1021.5
20171210224918 64 117 2.0 10.0 0.00 0.00 0.00 43 1021.8
20171210222422 63 98 5.0 9.0 0.00 0.00 0.00 41 1022.0
20171210220910 63 106 7.0 11.0 0.00 0.00 0.00 41 1022.1
20171210214912 62 72 5.0 11.0 0.00 0.00 0.00 43 1022.2
20171210213415 62 56 5.0 11.0 0.00 0.00 0.00 45 1022.2
20171210211914 61 86 5.0 10.0 0.00 0.00 0.00 46 1022.5
20171210205921 60 88 4.0 10.0 0.00 0.00 0.00 48 1022.9
20171210203947 59 100 6.0 12.0 0.00 0.00 0.00 45 1023.5
20171210202401 59 53 3.0 13.0 0.00 0.00 0.00 48 1023.5
20171210200905 58 29 5.0 12.0 0.00 0.00 0.00 50 1023.6
20171210194907 56 103 5.0 11.0 0.00 0.00 0.00 51 1023.9
20171210193402 55 87 6.0 12.0 0.00 0.00 0.00 54 1024.0
20171210190913 52 96 4.0 7.0 0.00 0.00 0.00 66 1024.3
20171210184430 51 84 2.0 7.0 0.00 0.00 0.00 69 1024.6
20171210182445 47 76 10.0 16.0 0.00 0.00 0.00 74 1024.7
20171210180938 47 78 13.0 17.0 0.00 0.00 0.00 71 1024.8
20171210175428 47 91 12.0 18.0 0.00 0.00 0.00 72 1025.0
20171210173922 47 80 11.0 16.0 0.00 0.00 0.00 75 1024.8
20171210171935 47 72 9.0 11.0 0.00 0.00 0.00 80 1025.2
20171210165941 46 84 8.0 10.0 0.00 0.00 0.00 85 1024.8
20171210164430 46 85 6.0 10.0 0.00 0.00 0.00 82 1024.6
20171210162918 46 63 8.0 12.0 0.00 0.00 0.00 84 1024.5
20171210160936 46 57 7.0 11.0 0.00 0.00 0.00 83 1024.5
20171210154931 45 66 6.0 8.0 0.00 0.00 0.00 84 1024.3
20171210152925 45 76 7.0 11.0 0.00 0.00 0.00 84 1024.3
20171210151414 45 82 9.0 11.0 0.00 0.00 0.00 79 1024.0
20171210145443 45 72 10.0 13.0 0.00 0.00 0.00 64 1023.9
20171210143919 44 67 9.0 11.0 0.00 0.00 0.00 68 1023.7
20171210142412 45 61 9.0 12.0 0.00 0.00 0.00 67 1023.8
20171210140458 45 56 9.0 12.0 0.00 0.00 0.00 72 1023.9
20171210134425 46 64 8.0 12.0 0.00 0.00 0.00 80 1023.7
20171210132441 45 91 5.0 9.0 0.00 0.00 0.00 82 1023.7
20171210130922 45 72 5.0 9.0 0.00 0.00 0.00 81 1023.8
20171210125410 45 68 4.0 8.0 0.00 0.00 0.00 78 1023.8
20171210123428 47 73 8.0 11.0 0.00 0.00 0.00 79 1023.6
20171210121430 47 67 8.0 14.0 0.00 0.00 0.00 72 1023.7
20171210115920 47 64 8.0 10.0 0.00 0.00 0.00 68 1023.7
20171210114406 47 58 7.0 10.0 0.00 0.00 0.00 73 1023.8
20171210112431 47 66 7.0 9.0 0.00 0.00 0.00 74 1023.9
20171210110950 47 65 5.0 7.0 0.00 0.00 0.00 75 1024.0
20171210104939 49 59 6.0 9.0 0.00 0.00 0.00 74 1024.1
20171210102944 49 65 7.0 10.0 0.00 0.00 0.00 73 1024.2
20171210101451 50 56 9.0 11.0 0.00 0.00 0.00 72 1024.1
20171210095439 49 55 7.0 9.0 0.00 0.00 0.00 73 1024.2
20171210093422 48 55 6.0 7.0 0.00 0.00 0.00 76 1024.3
20171210091451 51 21 6.0 8.0 0.00 0.00 0.00 69 1024.0
20171210085933 51 28 5.0 7.0 0.00 0.00 0.00 68 1024.1
20171210084427 51 28 5.0 7.0 0.00 0.00 0.00 69 1024.1
20171210082924 51 29 4.0 6.0 0.00 0.00 0.00 69 1024.1
20171210080956 52 46 3.0 4.0 0.00 0.00 0.00 68 1024.3
20171210075435 53 50 3.0 4.0 0.00 0.00 0.00 66 1024.2
20171210073943 53 48 2.0 3.0 0.00 0.00 0.00 64 1024.4
20171210072417 53 65 2.0 3.0 0.00 0.00 0.00 63 1024.5
20171210070434 54 50 2.0 5.0 0.00 0.00 0.00 61 1024.3
20171210064942 54 67 0.0 1.0 0.00 0.00 0.00 62 1024.3
20171210063003 55 78 1.0 2.0 0.00 0.00 0.00 59 1023.9
20171210061438 56 105 3.0 5.0 0.00 0.00 0.00 56 1023.8
20171210055925 55 110 4.0 5.0 0.00 0.00 0.00 56 1023.7
20171210054439 55 99 1.0 3.0 0.00 0.00 0.00 61 1024.1
20171210052923 54 114 3.0 4.0 0.00 0.00 0.00 61 1024.1
20171210050938 52 121 1.0 1.0 0.00 0.00 0.00 69 1024.0
20171210045430 52 66 0.0 1.0 0.00 0.00 0.00 68 1024.0
20171210043425 53 22 0.0 3.0 0.00 0.00 0.00 68 1023.9
20171210041930 53 45 1.0 2.0 0.00 0.00 0.00 68 1023.9
20171210035938 53 50 1.0 3.0 0.00 0.00 0.00 68 1024.1
20171210034438 53 62 2.0 4.0 0.00 0.00 0.00 67 1023.9
20171210033151 53 61 3.0 4.0 0.00 0.00 0.00 68 1023.7
20171210030917 53 66 2.0 3.0 0.00 0.00 0.00 67 1023.7
20171210024950 53 69 4.0 5.0 0.00 0.00 0.00 66 1023.8
20171210023025 55 82 7.0 10.0 0.00 0.00 0.00 62 1023.7
20171210021442 56 88 11.0 14.0 0.00 0.00 0.00 59 1023.6
20171210015946 56 91 12.0 14.0 0.00 0.00 0.00 59 1023.7
20171210014447 56 95 13.0 14.0 0.00 0.00 0.00 60 1023.5
20171210011935 56 99 14.0 16.0 0.00 0.00 0.00 60 1023.2
20171210010009 56 95 14.0 16.0 0.00 0.00 0.00 59 1023.2
20171210004420 57 100 13.0 15.0 0.00 0.00 0.00 58 1023.3
20171210002420 57 100 13.0 17.0 0.00 0.00 0.00 58 1023.4
20171210000426 58 86 14.0 16.0 0.00 0.00 0.00 56 1023.2
20171209234921 59 102 12.0 15.0 0.00 0.00 0.00 56 1023.4
20171209232922 58 92 12.0 15.0 0.00 0.00 0.00 55 1023.5
20171209230938 58 94 11.0 13.0 0.00 0.00 0.00 57 1023.5
20171209224935 58 97 11.0 14.0 0.00 0.00 0.00 56 1023.5
20171209223422 58 83 10.0 14.0 0.00 0.00 0.00 56 1023.5
20171209221922 58 84 11.0 15.0 0.00 0.00 0.00 55 1023.6
20171209215940 58 69 11.0 16.0 0.00 0.00 0.00 55 1023.8
20171209213926 57 67 12.0 16.0 0.00 0.00 0.00 55 1023.8
20171209212415 56 76 12.0 15.0 0.00 0.00 0.00 60 1024.0
20171209210442 55 92 10.0 13.0 0.00 0.00 0.00 62 1024.2
20171209204923 54 81 10.0 13.0 0.00 0.00 0.00 62 1024.5
20171209202937 53 61 9.0 13.0 0.00 0.00 0.00 63 1024.5
20171209201455 52 73 8.0 13.0 0.00 0.00 0.00 65 1025.0
20171209195924 51 93 7.0 11.0 0.00 0.00 0.00 67 1025.1
20171209193940 51 76 10.0 15.0 0.00 0.00 0.00 67 1025.0
20171209192439 50 85 11.0 15.0 0.00 0.00 0.00 69 1025.5
20171209191006 49 86 11.0 17.0 0.00 0.00 0.00 69 1025.5
20171209184933 48 62 10.0 15.0 0.00 0.00 0.00 69 1026.0
20171209183433 47 89 8.0 15.0 0.00 0.00 0.00 70 1026.4
20171209181919 47 104 12.0 19.0 0.00 0.00 0.00 67 1026.4
20171209175928 45 72 11.0 16.0 0.00 0.00 0.00 69 1026.3
20171209173944 46 67 7.0 13.0 0.00 0.00 0.00 69 1026.3
20171209171937 44 60 10.0 12.0 0.00 0.00 0.00 70 1026.0
20171209170411 44 61 9.0 11.0 0.00 0.00 0.00 71 1025.9
20171209164445 44 45 7.0 12.0 0.00 0.00 0.00 71 1026.1
20171209162442 43 52 4.0 8.0 0.00 0.00 0.00 69 1026.0
20171209160910 44 39 6.0 8.0 0.00 0.00 0.00 67 1025.9
20171209154919 45 46 5.0 8.0 0.00 0.00 0.00 70 1025.8
20171209152947 45 56 4.0 7.0 0.00 0.00 0.00 73 1025.7
20171209151413 44 65 6.0 7.0 0.00 0.00 0.00 75 1025.5
20171209145438 44 59 5.0 7.0 0.00 0.00 0.00 72 1025.6
20171209143922 45 62 7.0 10.0 0.00 0.00 0.00 70 1025.6
20171209142447 45 61 5.0 7.0 0.00 0.00 0.00 71 1025.6
20171209140910 46 53 6.0 9.0 0.00 0.00 0.00 71 1025.5
20171209134941 47 53 7.0 10.0 0.00 0.00 0.00 70 1025.5
20171209133432 47 50 5.0 9.0 0.00 0.00 0.00 70 1025.6
20171209131925 46 51 4.0 6.0 0.00 0.00 0.00 71 1025.6
20171209130404 47 59 5.0 8.0 0.00 0.00 0.00 71 1025.6
20171209124433 47 62 5.0 9.0 0.00 0.00 0.00 69 1025.7
20171209122915 46 55 5.0 6.0 0.00 0.00 0.00 72 1025.6
20171209121423 47 76 6.0 8.0 0.00 0.00 0.00 73 1025.7
20171209115442 47 88 4.0 6.0 0.00 0.00 0.00 72 1025.8
20171209113920 48 81 5.0 6.0 0.00 0.00 0.00 72 1025.7
20171209112411 48 53 4.0 6.0 0.00 0.00 0.00 63 1025.7
20171209110451 48 46 5.0 7.0 0.00 0.00 0.00 61 1025.6
20171209104909 48 26 3.0 4.0 0.00 0.00 0.00 60 1025.5
20171209102936 50 41 3.0 5.0 0.00 0.00 0.00 59 1025.6
20171209100922 52 40 4.0 6.0 0.00 0.00 0.00 61 1025.7
20171209095315 53 48 2.0 5.0 0.00 0.00 0.00 61 1025.9
20171209092957 53 36 2.0 4.0 0.00 0.00 0.00 61 1025.9
20171209091419 53 30 2.0 4.0 0.00 0.00 0.00 61 1025.8
20171209085449 53 12 0.0 2.0 0.00 0.00 0.00 61 1025.9
20171209083919 53 51 0.0 3.0 0.00 0.00 0.00 59 1025.9
20171209081938 53 18 1.0 3.0 0.00 0.00 0.00 61 1025.9
20171209080450 53 65 1.0 2.0 0.00 0.00 0.00 60 1026.0
20171209074929 53 72 1.0 2.0 0.00 0.00 0.00 60 1026.2
20171209072935 53 67 1.0 1.0 0.00 0.00 0.00 60 1026.3
20171209071426 53 67 1.0 2.0 0.00 0.00 0.00 60 1026.2
20171209065928 54 89 1.0 2.0 0.00 0.00 0.00 59 1026.3
20171209063928 42 199 0.0 0.0 0.00 0.00 0.00 82 1026.2
20171209062420 42 199 0.0 0.0 0.00 0.00 0.00 81 1026.3
20171209060442 43 200 0.0 0.0 0.00 0.00 0.00 79 1026.3
20171209054440 43 199 0.0 0.0 0.00 0.00 0.00 79 1026.1
20171209052937 44 199 0.0 0.0 0.00 0.00 0.00 78 1026.3
20171209050933 44 200 0.0 0.0 0.00 0.00 0.00 78 1026.3
20171209045432 44 199 0.0 0.0 0.00 0.00 0.00 76 1026.4
20171209043941 45 200 0.0 0.0 0.00 0.00 0.00 76 1026.3
20171209041936 45 200 0.0 0.0 0.00 0.00 0.00 74 1026.4
20171209040410 46 199 0.0 0.0 0.00 0.00 0.00 74 1026.7
20171209034433 46 199 0.0 0.0 0.00 0.00 0.00 73 1026.8
20171209033201 46 199 0.0 0.0 0.00 0.00 0.00 72 1026.8
20171209030930 47 199 0.0 0.0 0.00 0.00 0.00 70 1026.2
20171209025418 48 200 0.0 0.0 0.00 0.00 0.00 69 1026.2
20171209023907 49 199 0.0 0.0 0.00 0.00 0.00 67 1026.1
20171209021940 50 199 0.0 0.0 0.00 0.00 0.00 66 1026.2
20171209020443 51 200 0.0 0.0 0.00 0.00 0.00 63 1026.3
20171209014434 52 200 0.0 0.0 0.00 0.00 0.00 62 1026.3
20171209012446 53 200 1.0 3.0 0.00 0.00 0.00 60 1026.1
20171209010940 55 199 1.0 3.0 0.00 0.00 0.00 59 1026.0
20171209005434 55 199 1.0 3.0 0.00 0.00 0.00 58 1026.0
20171209003436 57 199 2.0 5.0 0.00 0.00 0.00 55 1026.2
20171209001914 59 309 1.0 4.0 0.00 0.00 0.00 53 1026.1
20171208235933 60 174 0.0 5.0 0.00 0.00 0.00 51 1026.3
20171208234424 0 0.0 0.0 0.00 0.00 0.00 1026.4
20171208232428 0 0.0 0.0 0.00 0.00 0.00 1026.5
20171208230918 0 0.0 0.0 0.00 0.00 0.00 1026.5
20171208224953 0 0.0 0.0 0.00 0.00 0.00 1026.6
20171208223412 0 0.0 0.0 0.00 0.00 0.00 1026.8
20171208221449 0 0.0 0.0 0.00 0.00 0.00 1026.7
20171208215915 56 143 7.0 10.0 0.00 0.00 0.00 56 1026.8
20171208213953 55 109 7.0 12.0 0.00 0.00 0.00 57 1027.2
20171208212439 55 92 9.0 13.0 0.00 0.00 0.00 59 1027.3
20171208210946 54 110 7.0 10.0 0.00 0.00 0.00 60 1027.6
20171208204936 53 101 7.0 11.0 0.00 0.00 0.00 63 1027.8
20171208202943 53 100 8.0 11.0 0.00 0.00 0.00 63 1028.1
20171208201419 53 101 8.0 14.0 0.00 0.00 0.00 62 1028.5
20171208195433 52 92 6.0 8.0 0.00 0.00 0.00 67 1028.7
20171208193922 51 92 6.0 9.0 0.00 0.00 0.00 69 1028.9
20171208191927 50 124 5.0 11.0 0.00 0.00 0.00 70 1029.3
20171208185929 48 110 6.0 11.0 0.00 0.00 0.00 73 1029.5
20171208184423 47 90 7.0 9.0 0.00 0.00 0.00 72 1029.6
20171208182440 46 114 7.0 13.0 0.00 0.00 0.00 74 1029.7
20171208180924 46 82 6.0 11.0 0.00 0.00 0.00 75 1029.8
20171208174936 45 92 7.0 10.0 0.00 0.00 0.00 73 1030.0
20171208172934 45 65 6.0 10.0 0.00 0.00 0.00 75 1029.8
20171208171416 45 60 6.0 10.0 0.00 0.00 0.00 75 1030.1
20171208165437 45 53 7.0 9.0 0.00 0.00 0.00 72 1029.9
20171208163917 46 109 4.0 7.0 0.00 0.00 0.00 72 1029.8
20171208162414 46 67 5.0 7.0 0.00 0.00 0.00 72 1029.6
20171208160457 46 79 4.0 5.0 0.00 0.00 0.00 72 1029.6
20171208154936 45 58 3.0 5.0 0.00 0.00 0.00 74 1029.3
20171208153411 44 69 4.0 6.0 0.00 0.00 0.00 75 1029.5
20171208151928 44 36 3.0 4.0 0.00 0.00 0.00 73 1029.3
20171208145934 43 32 1.0 3.0 0.00 0.00 0.00 77 1029.3
20171208143936 42 282 2.0 3.0 0.00 0.00 0.00 78 1029.3
20171208141946 42 292 1.0 2.0 0.00 0.00 0.00 76 1029.1
20171208135955 39 158 0.0 0.0 0.00 0.00 0.00 84 1029.0
20171208134433 39 158 0.0 0.0 0.00 0.00 0.00 83 1029.2
20171208132921 39 158 1.0 3.0 0.00 0.00 0.00 84 1029.3
20171208131418 38 154 0.0 0.0 0.00 0.00 0.00 82 1028.9
20171208125423 37 154 0.0 0.0 0.00 0.00 0.00 83 1028.8
20171208123918 37 154 0.0 0.0 0.00 0.00 0.00 81 1028.6
20171208122439 38 154 0.0 0.0 0.00 0.00 0.00 81 1028.6
20171208120912 38 154 0.0 0.0 0.00 0.00 0.00 81 1028.6
20171208114934 38 154 0.0 0.0 0.00 0.00 0.00 79 1028.6
20171208113423 38 154 0.0 0.0 0.00 0.00 0.00 78 1028.5
20171208111458 38 154 0.0 0.0 0.00 0.00 0.00 81 1028.6
20171208105933 39 154 0.0 0.0 0.00 0.00 0.00 79 1028.7
20171208104442 39 154 0.0 0.0 0.00 0.00 0.00 77 1028.5
20171208102914 40 154 0.0 0.0 0.00 0.00 0.00 76 1028.4
20171208100937 40 154 0.0 0.0 0.00 0.00 0.00 76 1028.5
20171208095421 40 154 0.0 0.0 0.00 0.00 0.00 76 1028.6
20171208093758 52 335 1.0 2.0 0.00 0.00 0.00 47 1028.7
20171208091445 53 1 0.0 2.0 0.00 0.00 0.00 45 1028.6
20171208084946 55 263 0.0 2.0 0.00 0.00 0.00 40 1028.9
20171208083443 44 224 0.0 0.0 0.00 0.00 0.00 78 1028.9
20171208081951 44 224 0.0 0.0 0.00 0.00 0.00 77 1029.0
20171208080032 44 224 0.0 0.0 0.00 0.00 0.00 77 1029.1
20171208074505 45 224 0.0 0.0 0.00 0.00 0.00 76 1029.2
20171208073001 45 224 0.0 0.0 0.00 0.00 0.00 78 1029.2
20171208071442 45 224 0.0 0.0 0.00 0.00 0.00 78 1029.0
20171208065938 45 224 0.0 0.0 0.00 0.00 0.00 76 1028.9
20171208064000 43 154 0.0 0.0 0.00 0.00 0.00 73 1028.5
20171208062450 43 154 0.0 0.0 0.00 0.00 0.00 73 1028.1
20171208061002 43 154 0.0 0.0 0.00 0.00 0.00 70 1028.4
20171208055441 44 154 0.0 0.0 0.00 0.00 0.00 70 1028.2
20171208053456 44 154 0.0 0.0 0.00 0.00 0.00 70 1027.7
20171208052006 45 154 0.0 0.0 0.00 0.00 0.00 68 1027.6
20171208045949 45 154 0.0 0.0 0.00 0.00 0.00 67 1027.5
20171208044454 45 154 0.0 0.0 0.00 0.00 0.00 67 1027.8
20171208042821 45 154 0.0 0.0 0.00 0.00 0.00 67 1027.7
20171208035459 46 154 0.0 0.0 0.00 0.00 0.00 66 1027.3
20171208033454 47 154 0.0 0.0 0.00 0.00 0.00 66 1027.2
20171208032042 47 154 0.0 0.0 0.00 0.00 0.00 64 1027.2
20171208030454 48 154 0.0 0.0 0.00 0.00 0.00 63 1027.2
20171208024505 48 154 0.0 0.0 0.00 0.00 0.00 62 1027.1
20171208022504 49 154 0.0 0.0 0.00 0.00 0.00 61 1027.2
20171208020508 50 154 0.0 0.0 0.00 0.00 0.00 60 1027.1
20171208014937 51 154 0.0 0.0 0.00 0.00 0.00 59 1026.8
20171208013015 53 154 0.0 0.0 0.00 0.00 0.00 57 1026.6
20171208011020 55 154 0.0 1.0 0.00 0.00 0.00 53 1026.6
20171208005448 56 154 1.0 4.0 0.00 0.00 0.00 51 1026.7
20171208003926 58 203 1.0 3.0 0.00 0.00 0.00 50 1026.5
20171208001952 59 169 2.0 5.0 0.00 0.00 0.00 48 1026.3
20171208000450 60 155 2.0 5.0 0.00 0.00 0.00 47 1026.2
20171207234956 62 142 0.0 3.0 0.00 0.00 0.00 45 1026.1
20171207233047 63 142 1.0 5.0 0.00 0.00 0.00 44 1026.4
20171207231454 64 136 2.0 5.0 0.00 0.00 0.00 41 1026.2
20171207225501 64 92 1.0 8.0 0.00 0.00 0.00 40 1026.3
20171207223942 64 130 3.0 7.0 0.00 0.00 0.00 38 1026.4
20171207221950 65 86 2.0 9.0 0.00 0.00 0.00 36 1026.3
20171207215953 65 84 3.0 8.0 0.00 0.00 0.00 34 1026.3
20171207214447 65 96 7.0 14.0 0.00 0.00 0.00 30 1026.2
20171207212510 64 98 6.0 13.0 0.00 0.00 0.00 31 1026.4
20171207210458 64 93 4.0 10.0 0.00 0.00 0.00 32 1026.5
20171207204523 63 109 3.0 12.0 0.00 0.00 0.00 34 1026.7
20171207202939 62 79 3.0 14.0 0.00 0.00 0.00 34 1026.6
20171207200955 61 111 8.0 12.0 0.00 0.00 0.00 34 1026.9
20171207194959 60 87 5.0 12.0 0.00 0.00 0.00 37 1027.5
20171207193451 55 72 17.0 22.0 0.00 0.00 0.00 42 1027.6
20171207191450 55 71 18.0 21.0 0.00 0.00 0.00 44 1027.7
20171207185450 53 74 11.0 15.0 0.00 0.00 0.00 48 1028.2
20171207183459 51 66 10.0 14.0 0.00 0.00 0.00 55 1028.3
20171207181517 50 88 9.0 13.0 0.00 0.00 0.00 59 1028.3
20171207175438 49 81 8.0 13.0 0.00 0.00 0.00 57 1028.3
20171207173949 49 83 8.0 16.0 0.00 0.00 0.00 56 1028.4
20171207171444 49 80 11.0 19.0 0.00 0.00 0.00 55 1028.5
20171207165501 49 65 11.0 21.0 0.00 0.00 0.00 59 1028.3
20171207163943 48 91 13.0 20.0 0.00 0.00 0.00 59 1028.1
20171207162018 47 86 12.0 17.0 0.00 0.00 0.00 62 1028.3
20171207155952 46 75 17.0 24.0 0.00 0.00 0.00 61 1028.0
20171207154453 46 74 16.0 20.0 0.00 0.00 0.00 62 1028.0
20171207152939 45 80 15.0 20.0 0.00 0.00 0.00 64 1027.8
20171207150948 44 77 14.0 21.0 0.00 0.00 0.00 68 1027.6
20171207144958 46 75 16.0 21.0 0.00 0.00 0.00 64 1027.7
20171207143446 45 81 12.0 20.0 0.00 0.00 0.00 64 1027.5
20171207141448 46 83 14.0 20.0 0.00 0.00 0.00 59 1027.5
20171207135447 46 94 10.0 20.0 0.00 0.00 0.00 57 1027.6
20171207133950 46 75 13.0 18.0 0.00 0.00 0.00 60 1027.4
20171207132431 45 58 13.0 20.0 0.00 0.00 0.00 62 1027.3
20171207130502 46 77 9.0 18.0 0.00 0.00 0.00 56 1027.4
20171207124454 48 40 10.0 16.0 0.00 0.00 0.00 48 1027.3
20171207122941 48 34 6.0 11.0 0.00 0.00 0.00 49 1027.3
20171207120950 49 68 7.0 15.0 0.00 0.00 0.00 49 1027.2
20171207115000 48 71 8.0 10.0 0.00 0.00 0.00 53 1026.9
20171207113431 48 52 7.0 12.0 0.00 0.00 0.00 52 1026.6
20171207111454 50 63 9.0 14.0 0.00 0.00 0.00 50 1026.6
20171207105954 50 93 8.0 12.0 0.00 0.00 0.00 48 1026.8
20171207104428 51 94 10.0 16.0 0.00 0.00 0.00 51 1026.3
20171207102445 52 100 11.0 15.0 0.00 0.00 0.00 52 1026.4
20171207100941 52 95 8.0 16.0 0.00 0.00 0.00 53 1026.2
20171207095430 52 82 13.0 16.0 0.00 0.00 0.00 53 1025.8
20171207093451 51 112 9.0 14.0 0.00 0.00 0.00 59 1025.8
20171207091454 48 134 6.0 11.0 0.00 0.00 0.00 61 1025.7
20171207085953 48 91 9.0 12.0 0.00 0.00 0.00 63 1025.7
20171207084453 49 83 11.0 18.0 0.00 0.00 0.00 62 1025.6
20171207082502 50 79 11.0 20.0 0.00 0.00 0.00 61 1025.5
20171207080441 52 65 12.0 19.0 0.00 0.00 0.00 57 1025.9
20171207074940 50 94 12.0 20.0 0.00 0.00 0.00 59 1025.7
20171207072952 50 55 14.0 21.0 0.00 0.00 0.00 58 1025.2
20171207071501 47 61 12.0 17.0 0.00 0.00 0.00 65 1024.6
20171207070001 47 40 12.0 15.0 0.00 0.00 0.00 65 1024.5
20171207064452 48 65 10.0 15.0 0.00 0.00 0.00 63 1024.5
20171207062940 49 74 16.0 21.0 0.00 0.00 0.00 60 1024.3
20171207061435 50 58 14.0 19.0 0.00 0.00 0.00 57 1024.2
20171207055504 51 48 12.0 21.0 0.00 0.00 0.00 56 1024.4
20171207053501 51 55 17.0 20.0 0.00 0.00 0.00 53 1024.0
20171207051936 51 60 18.0 20.0 0.00 0.00 0.00 54 1024.0
20171207045505 50 59 17.0 21.0 0.00 0.00 0.00 59 1023.9
20171207043450 50 54 9.0 11.0 0.00 0.00 0.00 59 1023.9
20171207041516 52 33 9.0 12.0 0.00 0.00 0.00 53 1024.0
20171207035950 52 294 4.0 9.0 0.00 0.00 0.00 56 1024.0
20171207034005 52 67 4.0 13.0 0.00 0.00 0.00 56 1023.9
20171207032613 52 32 5.0 7.0 0.00 0.00 0.00 57 1023.7
20171207030512 52 19 5.0 7.0 0.00 0.00 0.00 57 1023.6
20171207025020 53 10 4.0 5.0 0.00 0.00 0.00 55 1023.3
20171207023451 54 6 2.0 4.0 0.00 0.00 0.00 52 1023.3
20171207021953 54 358 0.0 5.0 0.00 0.00 0.00 52 1023.3
20171207020012 54 48 2.0 3.0 0.00 0.00 0.00 54 1023.1
20171207014453 54 60 1.0 4.0 0.00 0.00 0.00 52 1023.0
20171207012457 55 61 3.0 4.0 0.00 0.00 0.00 50 1022.9
20171207010002 56 110 0.0 0.0 0.00 0.00 0.00 52 1022.7
20171207004452 57 110 0.0 2.0 0.00 0.00 0.00 49 1022.7
20171207002949 58 110 1.0 3.0 0.00 0.00 0.00 48 1022.8
20171207001002 56 84 9.0 12.0 0.00 0.00 0.00 51 1022.9
20171206235023 57 93 9.0 12.0 0.00 0.00 0.00 49 1022.9
20171206233515 57 109 8.0 12.0 0.00 0.00 0.00 50 1022.8
20171206231957 57 87 13.0 16.0 0.00 0.00 0.00 45 1022.6
20171206230502 57 84 13.0 16.0 0.00 0.00 0.00 46 1022.8
20171206224507 57 85 12.0 15.0 0.00 0.00 0.00 45 1022.8
20171206222513 57 111 10.0 14.0 0.00 0.00 0.00 45 1022.7
20171206221026 57 111 9.0 13.0 0.00 0.00 0.00 44 1022.8
20171206215456 57 107 8.0 13.0 0.00 0.00 0.00 44 1023.0
20171206213914 56 77 11.0 15.0 0.00 0.00 0.00 44 1023.0
20171206211936 56 82 11.0 16.0 0.00 0.00 0.00 44 1023.2
20171206205954 55 78 12.0 15.0 0.00 0.00 0.00 45 1023.5
20171206204005 55 77 11.0 15.0 0.00 0.00 0.00 48 1023.8
20171206202443 54 79 9.0 12.0 0.00 0.00 0.00 49 1023.9
20171206200501 52 78 5.0 10.0 0.00 0.00 0.00 57 1024.3
20171206194446 50 102 4.0 10.0 0.00 0.00 0.00 63 1024.4
20171206193018 49 103 6.0 8.0 0.00 0.00 0.00 66 1024.6
20171206191435 48 102 3.0 12.0 0.00 0.00 0.00 68 1024.9
20171206185450 47 108 9.0 16.0 0.00 0.00 0.00 68 1025.0
20171206183956 47 79 9.0 14.0 0.00 0.00 0.00 66 1025.1
20171206181957 46 122 7.0 12.0 0.00 0.00 0.00 69 1025.3
20171206180004 46 95 7.0 9.0 0.00 0.00 0.00 71 1025.5
20171206174441 47 91 5.0 8.0 0.00 0.00 0.00 65 1025.6
20171206172508 47 107 3.0 5.0 0.00 0.00 0.00 65 1025.1
20171206170458 45 139 0.0 4.0 0.00 0.00 0.00 79 1025.4
20171206164518 44 91 2.0 4.0 0.00 0.00 0.00 81 1025.1
20171206163017 43 58 0.0 3.0 0.00 0.00 0.00 80 1025.0
20171206161012 42 112 3.0 7.0 0.00 0.00 0.00 81 1024.6
20171206155507 42 156 2.0 6.0 0.00 0.00 0.00 81 1024.5
20171206153917 42 113 6.0 8.0 0.00 0.00 0.00 81 1024.3
20171206152408 41 117 7.0 10.0 0.00 0.00 0.00 81 1024.2
20171206150415 0 0.0 0.0 0.00 0.00 0.00 1024.0
20171206144907 0 0.0 0.0 0.00 0.00 0.00 1023.7
20171206142918 0 0.0 0.0 0.00 0.00 0.00 1023.7
20171206141412 43 87 12.0 16.0 0.00 0.00 0.00 72 1023.6
20171206135447 43 68 10.0 14.0 0.00 0.00 0.00 71 1023.6
20171206133911 43 63 11.0 15.0 0.00 0.00 0.00 67 1023.4
20171206131930 43 72 10.0 15.0 0.00 0.00 0.00 68 1023.4
20171206130355 42 58 9.0 13.0 0.00 0.00 0.00 71 1023.1
20171206124427 43 72 12.0 15.0 0.00 0.00 0.00 67 1023.3
20171206122429 44 66 15.0 18.0 0.00 0.00 0.00 64 1023.1
20171206120902 44 70 11.0 15.0 0.00 0.00 0.00 63 1023.3
20171206114903 45 50 9.0 17.0 0.00 0.00 0.00 59 1023.2
20171206112916 44 68 4.0 7.0 0.00 0.00 0.00 60 1023.1
20171206111431 44 62 9.0 15.0 0.00 0.00 0.00 59 1023.2
20171206105420 45 63 7.0 11.0 0.00 0.00 0.00 58 1023.2
20171206103915 45 93 6.0 9.0 0.00 0.00 0.00 57 1022.8
20171206101908 47 103 5.0 8.0 0.00 0.00 0.00 55 1023.1
20171206095921 49 102 7.0 8.0 0.00 0.00 0.00 51 1023.0
20171206094356 50 59 5.0 9.0 0.00 0.00 0.00 47 1023.0
20171206092429 52 89 5.0 7.0 0.00 0.00 0.00 47 1022.7
20171206090416 52 91 2.0 4.0 0.00 0.00 0.00 49 1022.8
20171206084409 51 113 0.0 1.0 0.00 0.00 0.00 52 1022.8
20171206082927 51 114 1.0 3.0 0.00 0.00 0.00 51 1022.5
20171206080917 50 230 0.0 3.0 0.00 0.00 0.00 52 1022.6
20171206075414 50 208 0.0 2.0 0.00 0.00 0.00 52 1022.6
20171206073856 52 85 1.0 2.0 0.00 0.00 0.00 48 1022.6
20171206071919 54 278 2.0 2.0 0.00 0.00 0.00 45 1022.3
20171206065919 55 281 1.0 2.0 0.00 0.00 0.00 43 1022.2
20171206064415 55 248 1.0 1.0 0.00 0.00 0.00 41 1022.0
20171206062421 55 208 2.0 4.0 0.00 0.00 0.00 42 1021.9
20171206060408 54 235 4.0 9.0 0.00 0.00 0.00 45 1021.9
20171206054907 54 250 6.0 9.0 0.00 0.00 0.00 48 1021.9
20171206052927 53 265 6.0 10.0 0.00 0.00 0.00 48 1021.8
20171206051419 54 256 5.0 6.0 0.00 0.00 0.00 49 1021.8
20171206045427 55 351 0.0 2.0 0.00 0.00 0.00 45 1021.9
20171206043912 55 323 2.0 3.0 0.00 0.00 0.00 46 1021.8
20171206042407 55 302 2.0 4.0 0.00 0.00 0.00 47 1021.5
20171206040901 55 276 3.0 5.0 0.00 0.00 0.00 43 1021.6
20171206035350 55 245 2.0 7.0 0.00 0.00 0.00 42 1021.5
20171206033406 54 265 2.0 3.0 0.00 0.00 0.00 47 1021.5
20171206031900 54 217 1.0 3.0 0.00 0.00 0.00 46 1021.4
20171206025916 54 88 1.0 3.0 0.00 0.00 0.00 45 1021.3
20171206023910 56 214 1.0 4.0 0.00 0.00 0.00 41 1021.1
20171206022417 57 118 2.0 5.0 0.00 0.00 0.00 41 1020.7
20171206020418 58 158 3.0 5.0 0.00 0.00 0.00 37 1020.6
20171206014904 57 167 4.0 5.0 0.00 0.00 0.00 38 1020.6
20171206012910 57 195 4.0 5.0 0.00 0.00 0.00 38 1020.7
20171206011356 59 167 3.0 5.0 0.00 0.00 0.00 37 1020.5
20171206005430 59 136 6.0 8.0 0.00 0.00 0.00 36 1020.5
20171206003904 59 133 6.0 10.0 0.00 0.00 0.00 37 1020.3
20171206001929 62 135 6.0 11.0 0.00 0.00 0.00 34 1020.5
20171206000414 64 80 6.0 13.0 0.00 0.00 0.00 28 1020.3
20171205234902 64 101 7.0 9.0 0.00 0.00 0.00 27 1020.4
20171205232916 64 62 8.0 11.0 0.00 0.00 0.00 26 1020.3
20171205231433 64 54 11.0 15.0 0.00 0.00 0.00 26 1020.3
20171205225415 64 82 11.0 15.0 0.00 0.00 0.00 27 1020.3
20171205223859 63 74 15.0 20.0 0.00 0.00 0.00 27 1020.4
20171205222411 63 72 15.0 19.0 0.00 0.00 0.00 28 1020.3
20171205220424 63 81 15.0 20.0 0.00 0.00 0.00 28 1020.5
20171205214903 63 75 18.0 23.0 0.00 0.00 0.00 27 1020.3
20171205212921 63 58 19.0 22.0 0.00 0.00 0.00 25 1020.4
20171205210414 63 69 14.0 19.0 0.00 0.00 0.00 27 1020.5
20171205204411 62 75 8.0 14.0 0.00 0.00 0.00 28 1021.1
20171205202902 61 108 9.0 14.0 0.00 0.00 0.00 27 1020.9
20171205200933 61 125 5.0 9.0 0.00 0.00 0.00 29 1021.5
20171205195408 60 80 3.0 8.0 0.00 0.00 0.00 28 1021.7
20171205193416 59 75 4.0 9.0 0.00 0.00 0.00 28 1022.0
20171205191926 59 85 4.0 9.0 0.00 0.00 0.00 27 1022.0
20171205190127 58 103 3.0 6.0 0.00 0.00 0.00 29 1022.4
20171205183446 57 159 4.0 7.0 0.00 0.00 0.00 34 1022.9
20171205181525 55 158 5.0 9.0 0.00 0.00 0.00 40 1022.9
20171205175501 55 142 7.0 10.0 0.00 0.00 0.00 41 1022.7
20171205173959 57 167 6.0 8.0 0.00 0.00 0.00 38 1022.7
20171205172010 57 154 2.0 4.0 0.00 0.00 0.00 31 1022.8
20171205170521 57 161 2.0 5.0 0.00 0.00 0.00 30 1022.6
20171205164511 55 184 5.0 7.0 0.00 0.00 0.00 30 1022.6
20171205162954 55 172 4.0 9.0 0.00 0.00 0.00 31 1022.4
20171205161014 44 212 1.0 2.0 0.00 0.00 0.00 48 1022.4
20171205155015 43 212 1.0 3.0 0.00 0.00 0.00 51 1022.3
20171205153012 43 212 3.0 5.0 0.00 0.00 0.00 50 1022.5
20171205151012 47 195 1.0 6.0 0.00 0.00 0.00 42 1022.4
20171205145007 47 200 3.0 6.0 0.00 0.00 0.00 39 1022.2
20171205143506 47 203 4.0 7.0 0.00 0.00 0.00 39 1022.2
20171205141958 44 202 4.0 8.0 0.00 0.00 0.00 43 1022.0
20171205140009 41 276 0.0 3.0 0.00 0.00 0.00 51 1021.6
20171205134507 42 276 0.0 2.0 0.00 0.00 0.00 49 1021.5
20171205132955 43 276 0.0 2.0 0.00 0.00 0.00 47 1021.3
20171205131508 43 276 1.0 4.0 0.00 0.00 0.00 45 1021.5
20171205125524 45 276 1.0 2.0 0.00 0.00 0.00 43 1021.6
20171205123512 46 276 0.0 2.0 0.00 0.00 0.00 39 1021.5
20171205121500 44 276 1.0 3.0 0.00 0.00 0.00 43 1021.6
20171205115946 45 276 2.0 3.0 0.00 0.00 0.00 42 1021.6
20171205114001 45 276 1.0 3.0 0.00 0.00 0.00 40 1021.6
20171205112019 45 276 1.0 2.0 0.00 0.00 0.00 42 1021.8
20171205110453 45 276 2.0 3.0 0.00 0.00 0.00 44 1021.8
20171205104511 45 293 2.0 3.0 0.00 0.00 0.00 44 1021.7
20171205103010 46 302 2.0 3.0 0.00 0.00 0.00 43 1021.4
20171205101456 46 303 1.0 2.0 0.00 0.00 0.00 41 1021.4
20171205095525 46 303 0.0 0.0 0.00 0.00 0.00 42 1021.4
20171205094004 46 304 0.0 3.0 0.00 0.00 0.00 42 1021.4
20171205091958 47 308 1.0 3.0 0.00 0.00 0.00 41 1021.6
20171205090023 47 308 0.0 3.0 0.00 0.00 0.00 39 1021.7
20171205083951 56 6 9.0 14.0 0.00 0.00 0.00 29 1021.6
20171205082007 56 311 6.0 13.0 0.00 0.00 0.00 30 1021.5
20171205080041 56 336 7.0 14.0 0.00 0.00 0.00 29 1021.6
20171205074450 56 35 8.0 14.0 0.00 0.00 0.00 29 1021.5
20171205072503 56 11 3.0 12.0 0.00 0.00 0.00 29 1021.5
20171205070018 56 21 13.0 19.0 0.00 0.00 0.00 29 1021.1
20171205063459 56 319 6.0 15.0 0.00 0.00 0.00 29 1021.1
20171205061956 55 345 6.0 11.0 0.00 0.00 0.00 30 1020.8
20171205060455 55 338 8.0 17.0 0.00 0.00 0.00 30 1020.7
20171205054954 54 24 12.0 16.0 0.00 0.00 0.00 33 1020.6
20171205053013 55 36 17.0 21.0 0.00 0.00 0.00 32 1020.0
20171205050952 56 38 19.0 26.0 0.00 0.00 0.00 31 1019.8
20171205045009 55 27 19.0 25.0 0.00 0.00 0.00 31 1019.8
20171205043012 55 27 18.0 31.0 0.00 0.00 0.00 32 1019.8
20171205041459 55 27 24.0 32.0 0.00 0.00 0.00 31 1019.2
20171205040017 55 65 25.0 30.0 0.00 0.00 0.00 32 1019.2
20171205034007 55 51 18.0 25.0 0.00 0.00 0.00 33 1019.5
20171205032512 55 37 21.0 26.0 0.00 0.00 0.00 32 1019.5
20171205030519 55 27 24.0 30.0 0.00 0.00 0.00 33 1019.1
20171205024510 55 32 27.0 32.0 0.00 0.00 0.00 32 1018.9
20171205022517 56 32 24.0 27.0 0.00 0.00 0.00 31 1019.2
20171205021015 56 41 25.0 29.0 0.00 0.00 0.00 31 1019.2
20171205015510 57 26 25.0 33.0 0.00 0.00 0.00 29 1019.2
20171205014018 57 27 22.0 32.0 0.00 0.00 0.00 30 1019.0
20171205012008 57 44 34.0 46.0 0.00 0.00 0.00 29 1017.8
20171205010458 58 39 35.0 45.0 0.00 0.00 0.00 28 1017.8
20171205004947 59 34 38.0 49.0 0.00 0.00 0.00 26 1017.7
20171205003023 59 33 37.0 44.0 0.00 0.00 0.00 26 1017.6
20171205001513 60 44 30.0 41.0 0.00 0.00 0.00 25 1018.3
20171204235511 60 41 25.0 33.0 0.00 0.00 0.00 26 1018.5
20171204233514 60 23 29.0 40.0 0.00 0.00 0.00 25 1018.3
20171204231506 59 46 33.0 41.0 0.00 0.00 0.00 26 1017.8
20171204225511 59 31 29.0 37.0 0.00 0.00 0.00 26 1018.3
20171204223524 59 41 32.0 40.0 0.00 0.00 0.00 26 1018.4
20171204221955 59 28 39.0 45.0 0.00 0.00 0.00 26 1017.2
20171204220006 58 28 38.0 51.0 0.00 0.00 0.00 26 1017.5
20171204214454 58 37 38.0 50.0 0.00 0.00 0.00 26 1016.9
20171204212503 58 51 48.0 54.0 0.00 0.00 0.00 25 1016.4
20171204210516 58 46 42.0 55.0 0.00 0.00 0.00 25 1016.9
20171204204514 58 19 43.0 53.0 0.00 0.00 0.00 25 1016.8
20171204203007 59 37 43.0 49.0 0.00 0.00 0.00 23 1017.3
20171204201004 59 19 32.0 49.0 0.00 0.00 0.00 23 1018.2
20171204195447 59 50 34.0 44.0 0.00 0.00 0.00 22 1018.2
20171204193512 59 53 19.0 26.0 0.00 0.00 0.00 23 1019.1
20171204191958 58 26 16.0 25.0 0.00 0.00 0.00 26 1019.6
20171204190446 58 9 20.0 34.0 0.00 0.00 0.00 25 1019.8
20171204184757 57 26 33.0 39.0 0.00 0.00 0.00 25 1019.3
20171204182935 56 41 28.0 34.0 0.00 0.00 0.00 29 1019.6
20171204180947 53 45 10.0 13.0 0.00 0.00 0.00 39 1020.4
20171204175446 53 27 6.0 9.0 0.00 0.00 0.00 36 1020.8
20171204173937 52 47 5.0 12.0 0.00 0.00 0.00 36 1020.7
20171204172450 51 86 2.0 9.0 0.00 0.00 0.00 46 1020.6
20171204170459 51 35 8.0 10.0 0.00 0.00 0.00 37 1020.3
20171204164939 50 30 11.0 12.0 0.00 0.00 0.00 39 1020.3
20171204163420 50 32 12.0 14.0 0.00 0.00 0.00 40 1020.3
20171204161437 50 48 9.0 12.0 0.00 0.00 0.00 40 1020.0
20171204155459 49 25 7.0 11.0 0.00 0.00 0.00 40 1020.1
20171204153443 50 356 7.0 12.0 0.00 0.00 0.00 39 1020.3
20171204151457 49 352 9.0 16.0 0.00 0.00 0.00 40 1019.8
20171204145438 49 330 11.0 15.0 0.00 0.00 0.00 39 1019.8
20171204143930 49 342 11.0 17.0 0.00 0.00 0.00 40 1019.7
20171204142003 49 347 15.0 19.0 0.00 0.00 0.00 40 1019.6
20171204135933 49 339 15.0 22.0 0.00 0.00 0.00 40 1019.6
20171204133957 49 333 12.0 17.0 0.00 0.00 0.00 41 1019.2
20171204132437 49 342 12.0 20.0 0.00 0.00 0.00 40 1018.9
20171204130932 49 340 13.0 18.0 0.00 0.00 0.00 41 1019.2
20171204124431 49 340 16.0 25.0 0.00 0.00 0.00 41 1019.2
20171204122448 48 346 18.0 24.0 0.00 0.00 0.00 43 1019.4
20171204120456 48 337 14.0 21.0 0.00 0.00 0.00 44 1019.7
20171204114945 48 342 10.0 14.0 0.00 0.00 0.00 45 1020.1
20171204113442 48 316 9.0 16.0 0.00 0.00 0.00 45 1020.3
20171204111448 49 340 13.0 18.0 0.00 0.00 0.00 43 1019.8
20171204105938 49 345 20.0 23.0 0.00 0.00 0.00 42 1019.8
20171204104449 50 359 21.0 25.0 0.00 0.00 0.00 42 1019.5
20171204102441 50 4 20.0 27.0 0.00 0.00 0.00 43 1019.8
20171204100933 50 358 21.0 25.0 0.00 0.00 0.00 43 1019.8
20171204094946 50 330 15.0 22.0 0.00 0.01 0.00 44 1020.0
20171204093051 50 347 18.0 27.0 0.00 0.01 0.00 44 1019.7
20171204091421 50 1 16.0 23.0 0.00 0.01 0.00 45 1019.9
20171204084950 50 349 16.0 22.0 0.00 0.02 0.00 47 1020.0
20171204083044 51 355 16.0 21.0 0.00 0.02 0.00 47 1020.2
20171204081454 51 357 20.0 26.0 0.00 0.02 0.00 46 1020.2
20171204075443 51 333 18.0 23.0 0.00 0.02 0.02 48 1020.7
20171204073945 50 338 17.0 24.0 0.00 0.02 0.02 49 1020.7
20171204072434 50 341 16.0 23.0 0.00 0.02 0.02 50 1020.8
20171204070458 50 352 19.0 23.0 0.00 0.02 0.02 51 1020.7
20171204064935 50 347 19.0 23.0 0.00 0.02 0.02 50 1020.7
20171204062958 50 356 17.0 22.0 0.00 0.02 0.02 51 1020.8
20171204061447 50 7 16.0 23.0 0.00 0.02 0.02 51 1020.6
20171204055944 50 351 17.0 23.0 0.00 0.02 0.02 52 1020.6
20171204053947 51 357 18.0 22.0 0.00 0.02 0.02 50 1020.7
20171204051930 51 350 14.0 19.0 0.00 0.02 0.02 49 1020.8
20171204045956 51 340 13.0 18.0 0.00 0.02 0.02 50 1021.0
20171204043936 51 13 13.0 18.0 0.00 0.02 0.02 50 1021.0
20171204042003 51 354 13.0 17.0 0.00 0.02 0.02 51 1020.9
20171204040451 51 1 12.0 17.0 0.00 0.02 0.02 50 1020.9
20171204034929 51 4 14.0 19.0 0.00 0.02 0.02 50 1020.8
20171204033302 51 356 13.0 18.0 0.00 0.02 0.02 49 1020.8
20171204030928 52 348 13.0 19.0 0.00 0.02 0.02 48 1020.8
20171204024951 52 357 15.0 17.0 0.00 0.02 0.02 49 1020.9
20171204023315 52 13 8.0 11.0 0.00 0.02 0.02 55 1020.7
20171204021456 52 31 9.0 12.0 0.00 0.02 0.02 55 1020.8
20171204015452 52 23 8.0 11.0 0.00 0.02 0.02 55 1020.8
20171204014008 52 31 8.0 13.0 0.00 0.02 0.02 56 1020.7
20171204011940 52 34 11.0 15.0 0.00 0.02 0.02 55 1020.4
20171204005959 53 49 13.0 18.0 0.00 0.02 0.02 54 1020.2
20171204004514 53 58 16.0 19.0 0.00 0.02 0.02 51 1019.7
20171204002934 54 62 14.0 17.0 0.00 0.02 0.02 51 1020.0
20171204000955 55 60 10.0 14.0 0.00 0.02 0.02 52 1020.2
20171203235442 55 57 14.0 17.0 0.00 0.02 0.02 51 1020.3
20171203233950 55 49 3.0 5.0 0.00 0.02 0.02 54 1020.5
20171203232427 55 72 1.0 4.0 0.00 0.02 0.02 55 1020.5
20171203230454 54 75 7.0 13.0 0.00 0.02 0.02 54 1020.1
20171203224447 55 47 3.0 7.0 0.00 0.02 0.02 55 1020.3
20171203222453 55 39 5.0 11.0 0.00 0.02 0.02 55 1020.2
20171203220453 54 1 4.0 6.0 0.00 0.02 0.02 56 1020.3
20171203214440 54 43 2.0 7.0 0.00 0.02 0.02 57 1020.1
20171203212937 54 22 1.0 4.0 0.00 0.02 0.02 57 1020.2
20171203211427 54 351 3.0 7.0 0.00 0.02 0.02 59 1020.0
20171203205451 55 84 1.0 4.0 0.00 0.02 0.02 58 1020.6
20171203203940 53 115 4.0 8.0 0.00 0.02 0.02 60 1020.7
20171203202436 54 279 4.0 6.0 0.00 0.02 0.02 62 1020.9
20171203200521 53 44 4.0 6.0 0.00 0.02 0.02 59 1020.9
20171203194937 53 2 2.0 6.0 0.00 0.02 0.02 59 1020.8
20171203192950 53 292 6.0 9.0 0.00 0.02 0.02 61 1021.1
20171203191504 51 278 10.0 12.0 0.00 0.02 0.02 69 1021.0
20171203185933 51 284 9.0 13.0 0.00 0.02 0.02 70 1021.2
20171203183950 50 288 11.0 16.0 0.00 0.02 0.02 71 1021.1
20171203182433 49 260 14.0 18.0 0.00 0.02 0.02 71 1020.8
20171203180506 48 256 14.0 18.0 0.00 0.02 0.02 78 1020.8
20171203174956 47 261 12.0 15.0 0.00 0.02 0.02 82 1020.6
20171203172952 47 265 21.0 24.0 0.00 0.02 0.02 81 1019.8
20171203171448 47 265 16.0 19.0 0.00 0.02 0.02 80 1019.9
20171203165509 47 276 18.0 22.0 0.00 0.02 0.02 80 1019.7
20171203163936 46 260 14.0 18.0 0.00 0.02 0.02 83 1019.4
20171203161952 46 263 13.0 18.0 0.00 0.02 0.02 83 1019.7
20171203160008 46 262 14.0 18.0 0.00 0.02 0.02 82 1019.8
20171203153946 46 268 19.0 23.0 0.00 0.02 0.02 82 1019.3
20171203152427 46 264 22.0 27.0 0.00 0.02 0.02 82 1018.9
20171203150451 45 268 17.0 21.0 0.00 0.02 0.02 84 1019.1
20171203144936 46 267 18.0 21.0 0.00 0.02 0.02 83 1018.8
20171203142939 46 264 19.0 22.0 0.00 0.02 0.02 85 1018.4
20171203141431 46 268 17.0 21.0 0.00 0.02 0.02 85 1018.3
20171203135946 46 269 18.0 22.0 0.00 0.02 0.02 85 1018.0
20171203133939 46 277 19.0 24.0 0.00 0.02 0.02 83 1017.5
20171203132429 47 281 18.0 23.0 0.00 0.02 0.02 84 1017.3
20171203130442 46 279 15.0 19.0 0.00 0.02 0.02 85 1017.3
20171203125010 46 269 16.0 19.0 0.00 0.02 0.02 88 1017.1
20171203123007 46 267 13.0 17.0 0.00 0.02 0.02 89 1017.0
20171203120950 47 270 15.0 18.0 0.00 0.02 0.02 90 1016.7
20171203115014 47 278 20.0 28.0 0.00 0.02 0.02 87 1016.2
20171203113001 47 277 27.0 31.0 0.00 0.02 0.02 88 1015.4
20171203111442 48 280 30.0 35.0 0.00 0.02 0.02 84 1015.3
20171203105456 48 274 24.0 31.0 0.00 0.02 0.02 90 1015.1
20171203103943 48 271 20.0 26.0 0.00 0.02 0.02 92 1014.9
20171203102014 48 269 22.0 30.0 0.00 0.02 0.02 92 1014.9
20171203095958 49 274 30.0 38.0 0.01 0.02 0.02 92 1014.0
20171203093957 49 280 29.0 33.0 0.01 0.02 0.02 94 1013.5
20171203092433 49 270 30.0 36.0 0.01 0.02 0.02 95 1013.1
20171203090944 49 275 29.0 35.0 0.02 0.02 0.02 96 1013.3
20171203085434 49 265 30.0 36.0 0.01 0.01 0.01 96 1013.1
20171203083437 50 269 34.0 40.0 0.01 0.01 0.01 96 1012.9
20171203081940 50 267 30.0 36.0 0.01 0.01 0.01 96 1013.1
20171203080018 52 255 20.0 25.0 0.00 0.00 0.00 93 1013.2
20171203073450 53 237 17.0 22.0 0.00 0.00 0.00 91 1013.2
20171203071952 53 223 12.0 23.0 0.00 0.00 0.00 89 1013.4
20171203070442 52 252 16.0 23.0 0.00 0.00 0.00 89 1013.3
20171203064457 52 248 15.0 21.0 0.00 0.00 0.00 88 1013.4
20171203063047 52 244 15.0 21.0 0.00 0.00 0.00 86 1013.3
20171203061442 52 247 19.0 23.0 0.00 0.00 0.00 87 1013.3
20171203055952 52 251 15.0 24.0 0.00 0.00 0.00 86 1013.7
20171203053953 52 245 16.0 22.0 0.00 0.00 0.00 81 1013.4
20171203051955 52 260 15.0 19.0 0.00 0.00 0.00 87 1013.4
20171203050450 52 252 13.0 18.0 0.00 0.00 0.00 86 1013.4
20171203044438 52 249 1.0 15.0 0.00 0.00 0.00 83 1013.0
20171203042948 54 219 0.0 7.0 0.00 0.00 0.00 84 1012.8
20171203040959 54 224 2.0 9.0 0.00 0.00 0.00 83 1012.9
20171203035430 54 229 3.0 8.0 0.00 0.00 0.00 83 1012.9
20171203033443 54 237 2.0 7.0 0.00 0.00 0.00 81 1013.3
20171203031508 54 249 3.0 7.0 0.00 0.00 0.00 77 1013.3
20171203025454 53 97 1.0 4.0 0.00 0.00 0.00 73 1013.5
20171203023944 53 97 1.0 2.0 0.00 0.00 0.00 72 1013.4
20171203022226 53 255 9.0 11.0 0.00 0.00 0.00 71 1013.5
20171203015951 54 250 1.0 6.0 0.00 0.00 0.00 68 1013.5
20171203014446 54 231 2.0 7.0 0.00 0.00 0.00 67 1013.2
20171203012450 54 206 3.0 8.0 0.00 0.00 0.00 69 1013.4
20171203010442 53 160 2.0 5.0 0.00 0.00 0.00 70 1013.5
20171203004455 54 270 4.0 9.0 0.00 0.00 0.00 72 1013.8
20171203002451 55 306 1.0 6.0 0.00 0.00 0.00 72 1013.8
20171203000953 55 286 5.0 6.0 0.00 0.00 0.00 72 1013.7
20171202235433 55 231 4.0 5.0 0.00 0.00 0.00 70 1013.7
20171202233449 55 211 2.0 3.0 0.00 0.00 0.00 70 1013.5
20171202231951 55 138 2.0 4.0 0.00 0.00 0.00 70 1013.4
20171202230443 55 124 2.0 4.0 0.00 0.00 0.00 69 1013.8
20171202224457 55 118 3.0 5.0 0.00 0.00 0.00 70 1013.7
20171202222957 55 117 2.0 4.0 0.00 0.00 0.00 70 1014.0
20171202221450 55 110 3.0 6.0 0.00 0.00 0.00 70 1014.0
20171202215453 54 120 3.0 6.0 0.00 0.00 0.00 68 1014.0
20171202213435 54 78 5.0 8.0 0.00 0.00 0.00 71 1014.3
20171202211932 54 81 2.0 5.0 0.00 0.00 0.00 71 1014.2
20171202205948 55 97 1.0 6.0 0.00 0.00 0.00 71 1014.8
20171202204003 53 256 0.0 3.0 0.00 0.00 0.00 76 1015.1
20171202202442 52 218 1.0 6.0 0.00 0.00 0.00 79 1014.9
20171202200502 51 119 4.0 8.0 0.00 0.00 0.00 77 1015.2
20171202194935 51 102 6.0 9.0 0.00 0.00 0.00 76 1015.3
20171202193421 52 63 2.0 7.0 0.00 0.00 0.00 75 1016.3
20171202191458 51 117 4.0 9.0 0.00 0.00 0.00 75 1016.2
20171202185942 51 103 2.0 4.0 0.00 0.00 0.00 73 1016.5
20171202183954 50 72 2.0 4.0 0.00 0.00 0.00 72 1016.4
20171202181955 49 72 2.0 4.0 0.00 0.00 0.00 81 1016.6
20171202175950 49 89 3.0 5.0 0.00 0.00 0.00 82 1016.5
20171202174437 49 104 2.0 4.0 0.00 0.00 0.00 80 1016.5
20171202172935 49 136 2.0 4.0 0.00 0.00 0.00 81 1016.4
20171202170949 48 110 0.0 6.0 0.00 0.00 0.00 80 1016.3
20171202165458 47 58 0.0 3.0 0.00 0.00 0.00 80 1016.1
20171202163940 47 58 1.0 3.0 0.00 0.00 0.00 81 1016.0
20171202161954 47 91 0.0 2.0 0.00 0.00 0.00 83 1016.0
20171202160442 47 70 2.0 5.0 0.00 0.00 0.00 82 1015.8
20171202154454 47 78 1.0 2.0 0.00 0.00 0.00 82 1015.9
20171202152449 47 87 2.0 3.0 0.00 0.00 0.00 81 1016.0
20171202150507 47 82 0.0 0.0 0.00 0.00 0.00 82 1016.0
20171202144438 47 82 0.0 1.0 0.00 0.00 0.00 81 1015.7
20171202142458 47 86 1.0 2.0 0.00 0.00 0.00 83 1015.7
20171202140950 47 94 0.0 1.0 0.00 0.00 0.00 86 1015.5
20171202134958 47 88 1.0 3.0 0.00 0.00 0.00 87 1015.4
20171202132958 47 108 0.0 2.0 0.00 0.00 0.00 89 1015.3
20171202131019 47 120 0.0 2.0 0.00 0.00 0.00 88 1015.3
20171202125433 48 113 2.0 3.0 0.00 0.00 0.00 85 1015.3
20171202123444 47 86 0.0 1.0 0.00 0.00 0.00 85 1015.3
20171202121433 48 86 0.0 1.0 0.00 0.00 0.00 83 1015.2
20171202115931 49 86 2.0 2.0 0.00 0.00 0.00 81 1015.1
20171202114003 50 72 2.0 3.0 0.00 0.00 0.00 78 1015.2
20171202112007 50 88 1.0 2.0 0.00 0.00 0.00 77 1015.3
20171202105956 50 88 1.0 2.0 0.00 0.00 0.00 77 1015.5
20171202103943 50 48 0.0 1.0 0.00 0.00 0.00 76 1016.0
20171202101953 50 41 0.0 1.0 0.00 0.00 0.00 77 1015.8
20171202100502 50 41 1.0 2.0 0.00 0.00 0.00 77 1015.7
20171202094945 50 95 1.0 1.0 0.00 0.00 0.00 77 1015.8
20171202092950 50 105 0.0 1.0 0.00 0.00 0.00 77 1016.0
20171202091447 51 105 0.0 2.0 0.00 0.00 0.00 76 1015.9
20171202085931 51 109 2.0 3.0 0.00 0.00 0.00 77 1015.8
20171202083944 51 122 2.0 4.0 0.00 0.00 0.00 76 1016.0
20171202081958 51 109 3.0 4.0 0.00 0.00 0.00 76 1015.8
20171202080026 51 75 2.0 4.0 0.00 0.00 0.00 75 1016.0
20171202073950 52 69 5.0 6.0 0.00 0.00 0.00 74 1015.9
20171202072001 52 78 5.0 7.0 0.00 0.00 0.00 74 1015.9
20171202065456 52 60 5.0 8.0 0.00 0.00 0.00 73 1015.9
20171202063441 52 71 4.0 6.0 0.00 0.00 0.00 74 1016.0
20171202061447 52 100 4.0 8.0 0.00 0.00 0.00 72 1015.8
20171202055929 52 92 5.0 7.0 0.00 0.00 0.00 71 1015.8
20171202054413 53 86 7.0 8.0 0.00 0.00 0.00 69 1015.8
20171202052429 52 72 3.0 5.0 0.00 0.00 0.00 69 1016.1
20171202050926 53 56 2.0 4.0 0.00 0.00 0.00 71 1016.0
20171202044944 53 25 3.0 5.0 0.00 0.00 0.00 69 1016.0
20171202042928 53 42 1.0 4.0 0.00 0.00 0.00 69 1015.9
20171202040943 53 34 2.0 4.0 0.00 0.00 0.00 72 1016.0
20171202034950 54 37 3.0 4.0 0.00 0.00 0.00 70 1015.8
20171202033223 55 348 1.0 2.0 0.00 0.00 0.00 64 1016.1
20171202030952 55 350 2.0 3.0 0.00 0.00 0.00 64 1015.8
20171202025433 56 23 0.0 2.0 0.00 0.00 0.00 62 1015.8
20171202023456 56 32 1.0 2.0 0.00 0.00 0.00 62 1015.7
20171202021457 55 245 0.0 1.0 0.00 0.00 0.00 62 1015.5
20171202015948 55 245 0.0 1.0 0.00 0.00 0.00 63 1015.5
20171202014435 54 245 0.0 1.0 0.00 0.00 0.00 64 1015.4
20171202011943 56 245 0.0 1.0 0.00 0.00 0.00 60 1015.4
20171202010438 56 245 1.0 1.0 0.00 0.00 0.00 59 1015.5
20171202004927 57 245 1.0 2.0 0.00 0.00 0.00 59 1015.3
20171202003001 58 220 2.0 3.0 0.00 0.00 0.00 63 1015.6
20171202001457 59 213 1.0 3.0 0.00 0.00 0.00 65 1015.8
20171201235450 59 186 2.0 4.0 0.00 0.00 0.00 65 1015.7
20171201233939 59 191 2.0 4.0 0.00 0.00 0.00 63 1015.8
20171201232435 59 143 0.0 3.0 0.00 0.00 0.00 64 1015.8
20171201230517 59 248 3.0 4.0 0.00 0.00 0.00 60 1015.8
20171201224509 60 284 1.0 6.0 0.00 0.00 0.00 59 1015.9
20171201222935 60 162 1.0 4.0 0.00 0.00 0.00 62 1015.8
20171201221428 59 240 3.0 7.0 0.00 0.00 0.00 60 1015.8
20171201215451 58 256 5.0 10.0 0.00 0.00 0.00 61 1015.8
20171201213948 58 261 4.0 8.0 0.00 0.00 0.00 63 1016.2
20171201212452 58 270 2.0 5.0 0.00 0.00 0.00 64 1016.4
20171201210446 56 75 1.0 3.0 0.00 0.00 0.00 69 1016.6
20171201204941 56 101 2.0 4.0 0.00 0.00 0.00 69 1016.7
20171201202957 55 60 2.0 4.0 0.00 0.00 0.00 71 1016.8
20171201201424 55 70 2.0 6.0 0.00 0.00 0.00 72 1016.8
20171201195500 54 85 3.0 6.0 0.00 0.00 0.00 74 1017.2
20171201193454 53 71 2.0 6.0 0.00 0.00 0.00 77 1017.7
20171201191937 53 105 5.0 8.0 0.00 0.00 0.00 78 1017.5
20171201190428 53 121 1.0 4.0 0.00 0.00 0.00 80 1017.9
20171201184508 52 77 2.0 4.0 0.00 0.00 0.00 80 1018.0
20171201182936 52 122 0.0 4.0 0.00 0.00 0.00 79 1017.9
20171201181429 52 107 2.0 3.0 0.00 0.00 0.00 79 1017.9
20171201175528 53 149 2.0 3.0 0.00 0.00 0.00 78 1018.0
20171201173942 52 92 2.0 4.0 0.00 0.00 0.00 80 1018.1
20171201171952 53 352 0.0 1.0 0.00 0.00 0.00 73 1018.3
20171201170421 52 43 0.0 2.0 0.00 0.00 0.00 75 1018.1
20171201164443 53 217 0.0 1.0 0.00 0.00 0.00 73 1017.8
20171201162927 54 217 0.0 1.0 0.00 0.00 0.00 68 1017.6
20171201160932 53 227 0.0 0.0 0.00 0.00 0.00 68 1017.6
20171201154939 52 227 0.0 0.0 0.00 0.00 0.00 68 1017.6
20171201153016 52 228 0.0 1.0 0.00 0.00 0.00 69 1017.2
20171201151415 51 228 0.0 1.0 0.00 0.00 0.00 70 1017.5
20171201145433 50 228 0.0 1.0 0.00 0.00 0.00 74 1017.6
20171201143434 49 225 0.0 1.0 0.00 0.00 0.00 76 1017.3
20171201140950 50 225 0.0 0.0 0.00 0.00 0.00 73 1017.2
20171201134955 50 225 0.0 1.0 0.00 0.00 0.00 74 1016.9
20171201132937 50 243 0.0 1.0 0.00 0.00 0.00 74 1016.8